星链-32395 (STARLINK-32395)

导读

STARLINK-32395是美国太空探索技术公司(SpaceX)于2024年10月26日发射的星链(Starlink)系列卫星,运行于近地轨道,属于星链全球卫星互联网星座的组成部分。该卫星旨在为全球尤其是基础设施匮乏地区提供高速低延迟宽带互联网服务,支持视频通话、在线游戏等应用,推动星链网络的全球覆盖与服务扩展。

基本信息
目录编号:
61679
目录名称:
STARLINK-32395
国际标识:
2024-193U
轨道中心:
EARTH
卫星名称:
星链-32395
卫星全名:
星链-32395 (STARLINK-32395)
卫星状态:
在轨 (已飞行678 天)
发射日期:
2024-10-26 UTC
国别 :
美国 (US)
星等 :
--
轨道信息
数据来源 国际轨道数据
星历时间: 2026-09-04T00:48:28+0800
10小时前
查看轨道信息
半长轴: 6840.882km
偏心率: 0.000042
轨道倾角: 53.163°
近地点辐角 68.125°
升交点赤经 343.966°
平近点角 291.979°
近地点: 462.457km
远地点: 463.033km
周期: 93.849分钟
每日圈数: 15.343862
详细信息
固有亮度:
5
最大亮度:
2.5
卫星平台:
Starlink V1.0
覆盖范围:
全球
运营商:
太空探索技术公司
运营商所在国:
美国
制造商(研发单位):
太空探索技术公司
制造商所在国:
美国
使用方式:
暂无
卫星简介
Starlink 计划是 SpaceX 推出的全球卫星互联网项目,通过发射低轨道卫星,为全球尤其是偏远地区提供高速、低延迟的互联网服务。自 2019 年起,Starlink 已部署数千颗卫星,旨在缩小全球数字鸿沟,推动互联网普及。该项目还为军事、航空等行业提供通信支持,带来广泛经济效益。
2D轨道图
3D轨道图
轨道高度分析图
轨道倾角分析图
轨道综合分析图
查看轨道综合分析图
交会数据列表
事件ID 空间交会对象 最接近时刻(TCA) 交会距离 交会风险概率(CRP) 交会风险指数(CRI) 操作
CDM_260904-045206-167906-308721
2026-09-04T
04:52:52+0000
0.962 km
远距离
2.111464E-5 中风险 0.61
CDM_260903-072005-364006-167921
2026-09-03T
07:20:38+0000
1.585 km
极远距离
4.864587E-6 低风险 0.49
CDM_260904-053205-389306-167921
2026-09-04T
05:32:48+0000
1.896 km
极远距离
2.477825E-6 低风险 0.43
CDM_260903-153105-420306-167921
2026-09-03T
15:31:24+0000
2.734 km
极远距离
1.038096E-6 低风险 0.35
CDM_260904-015206-167906-436521
2026-09-04T
01:52:03+0000
2.347 km
极远距离
1.026284E-6 低风险 0.35